Stations météo

Publicité
Cannes, France (7684): Température de l'air & dewpoint: 10.01.2019 17:00:00 - 16.01.2019 17:00:00 (CET)Cannes, France (7684): Température de l'air 5cm: 10.01.2019 17:00:00 - 16.01.2019 17:00:00 (CET)Cannes, France (7684): Vitesse du vent & gusts: 10.01.2019 17:00:00 - 16.01.2019 17:00:00 (CET)Cannes, France (7684): Direction du vent: 10.01.2019 17:00:00 - 16.01.2019 17:00:00 (CET)Cannes, France (7684): reduced air pressure: 10.01.2019 17:00:00 - 16.01.2019 17:00:00 (CET)Cannes, France (7684): visibility: 10.01.2019 17:00:00 - 16.01.2019 17:00:00 (CET)Cannes, France (7684): Quantités de précipitations: 10.01.2019 17:00:00 - 16.01.2019 17:00:00 (CET)
Date & Time tt [°C] td [°C] tt 5cm [°C] ff [km/h] ff [knt] fx [km/h] fx [knt] dd ppp [hPa] vv [km] rr [mm]
16.01.2019 17:00:00 12,6 6,2 10,5 0 0 5 3 N 1018,4 19 0,0
16.01.2019 16:00:00 13,1 6,4 12,6 2 1 7 4 N 1018,7 20 0,0
16.01.2019 15:00:00 12,9 6,7 11,9 4 2 12 7 NNE 1018,9 20 0,0
16.01.2019 14:00:00 12,3 6,8 11,4 4 2 9 5 N 1019,3 19 0,0
16.01.2019 13:00:00 12,3 5,9 11,4 4 2 11 6 ENE 1020,1 50 0,0
16.01.2019 12:00:00 12,2 5,8 11,4 5 3 14 8 NE 1020,7 20 0,0
16.01.2019 11:00:00 11,3 6,2 - 4 2 11 6 N 1021,3 12 0,0
16.01.2019 10:00:00 9,2 4,8 7,7 6 3 13 7 N 1021,2 14 0,0
16.01.2019 09:00:00 7,8 4,2 6,6 9 5 14 7 N 1020,7 10 0,0
16.01.2019 08:00:00 7,1 3,3 6,1 8 4 16 9 NNE 1020,3 20 0,0
16.01.2019 07:00:00 6,5 2,8 5,7 10 5 18 10 NNE 1020,2 52 0,0
16.01.2019 06:00:00 6,1 2,5 4,4 10 5 16 9 NNE 1020,1 43 0,0
16.01.2019 05:00:00 5,1 1,2 4,1 9 5 16 9 NNE 1020,5 47 0,0
16.01.2019 04:00:00 4,6 0,0 3,3 9 5 18 10 NNE 1020,9 50 0,0
16.01.2019 03:00:00 4,0 -1,4 1,2 9 5 19 11 N 1021,2 47 0,0
16.01.2019 02:00:00 2,5 -2,2 1,1 9 5 14 8 N 1021,2 36 0,0
16.01.2019 01:00:00 2,6 -2,3 1,3 9 5 18 10 N 1021,2 29 0,0
16.01.2019 00:00:00 2,8 -1,9 1,2 9 5 18 10 N 1021,2 22 0,0
15.01.2019 23:00:00 3,1 -1,5 1,5 9 5 16 9 NNE 1021,0 12 0,0
15.01.2019 22:00:00 3,6 -1,0 1,6 8 4 15 8 NNE 1020,6 12 0,0
15.01.2019 21:00:00 4,5 -0,3 2,4 9 5 16 9 NNE 1020,0 12 0,0
15.01.2019 20:00:00 4,5 0,3 1,9 6 4 11 6 NNE 1019,8 3,4 0,0
15.01.2019 19:00:00 6,4 0,9 3,9 6 4 14 8 NNE 1019,4 19 0,0
15.01.2019 18:00:00 8,4 1,5 3,0 5 3 11 6 NNE 1019,0 15 0,0
15.01.2019 17:00:00 10,8 1,3 7,8 8 4 16 9 SSW 1018,6 60 0,0
15.01.2019 16:00:00 14,4 3,5 14,2 8 4 16 9 S 1018,4 60 0,0
15.01.2019 15:00:00 15,2 1,7 17,1 9 5 16 9 S 1018,3 60 0,0
15.01.2019 14:00:00 15,8 0,0 13,9 9 5 15 8 S 1018,5 60 0,0
15.01.2019 13:00:00 16,8 -1,4 16,4 2 1 10 5 SW 1018,9 60 0,0
15.01.2019 12:00:00 14,2 3,3 11,6 2 1 13 7 N 1019,2 25 0,0
15.01.2019 11:00:00 10,7 1,5 7,1 6 4 14 7 N 1019,3 20 0,0
15.01.2019 10:00:00 7,7 0,6 3,5 5 3 18 10 NNE 1018,8 20 0,0
15.01.2019 09:00:00 4,7 -0,7 1,6 11 6 18 10 N 1018,1 12 -
15.01.2019 08:00:00 3,4 -1,4 1,6 8 4 17 9 N 1017,0 55 0,0
15.01.2019 07:00:00 3,9 -1,3 1,5 8 5 18 10 N 1016,6 60 0,0
15.01.2019 06:00:00 3,4 -0,8 1,3 8 4 16 8 N 1016,0 57 0,0
15.01.2019 05:00:00 3,3 -0,3 1,6 8 5 16 8 N 1015,5 48 0,0
15.01.2019 04:00:00 3,8 0,1 2,0 11 6 16 9 N 1015,3 40 0,0
15.01.2019 03:00:00 4,1 0,6 2,4 10 6 16 9 N 1014,9 42 0,0
15.01.2019 02:00:00 4,2 1,2 2,9 11 6 18 10 N 1014,2 34 0,0
15.01.2019 01:00:00 4,6 2,0 3,0 8 5 16 8 N 1013,5 29 0,0
15.01.2019 00:00:00 5,2 3,0 3,7 9 5 15 8 N 1012,6 27 0,2
14.01.2019 23:00:00 5,8 3,5 3,9 8 5 16 9 N 1011,9 24 0,0
14.01.2019 22:00:00 6,4 4,6 4,3 6 4 15 8 N 1011,2 19 0,0
14.01.2019 21:00:00 7,0 5,8 5,0 8 4 12 6 N 1010,2 17 0,0
14.01.2019 20:00:00 7,8 6,6 5,9 6 3 13 7 N 1009,3 16 0,0
14.01.2019 19:00:00 8,9 7,2 7,4 8 5 14 8 NNE 1008,6 14 0,0
14.01.2019 18:00:00 10,4 8,0 7,8 8 4 13 7 NNE 1008,1 18 0,0
14.01.2019 17:00:00 13,3 8,4 9,9 3 2 14 7 N 1007,4 45 0,0
14.01.2019 16:00:00 15,3 9,0 15,1 6 4 16 9 E 1006,7 37 0,0
14.01.2019 15:00:00 15,6 10,4 17,7 9 5 26 14 SSE 1006,1 60 0,0
14.01.2019 14:00:00 16,6 9,5 15,5 6 3 15 8 WSW 1005,2 20 0,0
14.01.2019 13:00:00 16,6 9,0 18,0 4 2 12 7 S 1005,2 19 0,0
14.01.2019 12:00:00 15,6 9,0 15,7 2 1 16 9 NW 1005,1 46 0,0
14.01.2019 11:00:00 14,1 9,3 12,1 8 4 18 10 SSE 1004,8 20 0,0
14.01.2019 10:00:00 12,5 7,8 9,2 5 3 28 15 NE 1004,2 20 0,0
14.01.2019 09:00:00 11,2 3,0 8,4 9 5 34 19 N 1003,4 51 0,0
14.01.2019 08:00:00 13,6 0,2 1,6 20 11 33 18 W 1002,3 60 0,0
14.01.2019 07:00:00 4,2 3,6 2,1 3 1 23 13 N 1001,5 19 0,0
14.01.2019 06:00:00 4,9 4,8 1,4 11 6 25 14 NNW 1002,1 16 0,0
14.01.2019 05:00:00 3,4 2,8 1,7 5 3 16 8 N 1002,8 14 0,0
14.01.2019 04:00:00 4,0 3,3 2,4 9 5 15 8 NNE 1003,5 15 0,0
14.01.2019 03:00:00 3,8 3,1 2,4 9 5 14 7 NNE 1003,5 12 0,0
14.01.2019 02:00:00 3,7 2,8 2,5 8 4 19 10 N 1003,9 13 0,0
14.01.2019 01:00:00 4,3 3,3 3,4 11 6 19 11 NNE 1004,8 11 0,0
14.01.2019 00:00:00 4,4 3,4 3,1 10 6 19 10 NNE 1006,4 10 0,0
13.01.2019 23:00:00 4,7 3,7 3,3 9 5 16 9 N 1007,3 9 0,0
13.01.2019 22:00:00 5,0 4,0 3,3 4 2 16 9 N 1007,9 10 0,0
13.01.2019 21:00:00 5,8 4,6 4,6 8 5 14 8 N 1009,0 9 0,0
13.01.2019 20:00:00 6,8 5,4 6,0 10 5 18 10 NNE 1009,6 12 0,0
13.01.2019 19:00:00 7,5 6,0 5,5 6 4 11 6 N 1009,5 12 0,0
13.01.2019 18:00:00 8,7 6,3 6,5 4 2 8 4 N 1009,5 17 0,0
13.01.2019 17:00:00 11,3 7,2 7,8 3 2 8 4 N 1009,8 44 0,0
13.01.2019 16:00:00 12,9 7,1 12,3 4 2 9 5 S 1009,9 60 0,0
13.01.2019 15:00:00 13,4 6,7 13,7 5 3 12 6 SSE 1010,5 60 0,0
13.01.2019 14:00:00 14,0 7,3 14,4 6 4 10 5 S 1011,6 59 0,0
13.01.2019 13:00:00 14,8 6,9 13,1 2 1 8 4 SSW 1012,5 18 0,0
13.01.2019 12:00:00 11,4 5,0 10,1 5 3 11 6 N 1013,5 36 0,0
13.01.2019 11:00:00 8,6 3,2 5,3 8 4 17 9 N 1014,1 44 0,0
13.01.2019 10:00:00 5,2 1,9 3,0 8 4 19 10 N 1014,1 35 0,0
13.01.2019 09:00:00 3,7 0,7 1,6 9 5 16 9 N 1013,8 40 0,0
13.01.2019 08:00:00 2,8 0,0 1,2 8 5 16 9 N 1013,3 38 0,0
13.01.2019 07:00:00 2,6 -0,2 1,3 6 4 21 11 N 1012,9 35 0,0
13.01.2019 06:00:00 2,6 -0,3 1,3 10 6 18 10 N 1012,3 33 0,0
13.01.2019 05:00:00 2,5 -0,6 1,3 8 5 19 10 N 1012,2 32 0,0
13.01.2019 04:00:00 2,5 -1,1 1,6 8 5 19 11 N 1012,2 28 0,0
13.01.2019 03:00:00 2,6 -1,0 1,3 10 5 19 10 NNE 1011,9 27 0,0
13.01.2019 02:00:00 2,9 -0,9 0,9 6 3 11 6 NNE 1011,5 24 0,0
13.01.2019 01:00:00 3,0 -0,8 1,1 6 3 11 6 NNE 1012,5 23 0,0
13.01.2019 00:00:00 3,0 -0,6 1,3 6 3 14 8 N 1013,7 24 0,0
12.01.2019 23:00:00 2,6 -0,9 0,6 8 5 13 7 NNE 1015,0 19 0,0
12.01.2019 22:00:00 2,1 -1,0 0,4 7 4 12 7 NNE 1015,9 15 0,0
12.01.2019 21:00:00 2,6 -0,5 0,9 6 4 12 7 NNE 1016,5 16 0,0
12.01.2019 20:00:00 3,5 -0,2 1,8 7 4 16 8 N 1017,2 10 0,0
12.01.2019 19:00:00 4,5 0,3 2,8 8 4 16 9 N 1017,6 11 0,0
12.01.2019 18:00:00 6,0 0,7 3,3 7 4 11 6 NNE 1017,2 20 0,0
12.01.2019 17:00:00 9,9 -0,1 4,9 0 0 5 3 N 1017,6 20 0,0
12.01.2019 16:00:00 12,7 -1,3 12,2 5 3 8 4 S 1017,9 60 0,0
12.01.2019 15:00:00 13,5 -1,7 12,9 3 2 10 5 SW 1018,6 43 0,0
12.01.2019 14:00:00 12,4 0,2 11,0 7 4 12 7 SSE 1019,0 60 0,0
12.01.2019 13:00:00 11,4 -1,7 13,1 7 4 10 5 S 1019,7 60 0,0
12.01.2019 12:00:00 10,3 -3,1 8,4 4 2 9 5 NNE 1020,6 52 0,0
12.01.2019 11:00:00 6,7 -4,4 2,9 7 4 15 8 N 1021,2 20 0,0
12.01.2019 10:00:00 2,9 -5,0 -1,2 9 5 21 11 N 1021,2 59 0,0
12.01.2019 09:00:00 -0,2 -5,4 -2,5 8 5 17 9 N 1020,7 36 0,0
12.01.2019 08:00:00 -1,4 -5,8 -2,7 8 4 16 9 N 1020,3 36 0,0
12.01.2019 07:00:00 -1,2 -5,8 -2,5 8 4 16 8 N 1020,4 39 0,0
12.01.2019 06:00:00 -1,2 -5,4 -2,5 8 4 15 8 N 1020,3 37 0,0
12.01.2019 05:00:00 -0,9 -5,3 -2,2 6 3 17 9 N 1020,7 35 0,0
12.01.2019 04:00:00 -0,6 -5,0 -2,2 8 5 15 8 N 1021,0 33 0,0
12.01.2019 03:00:00 -0,6 -4,7 -2,3 7 4 10 6 N 1021,4 28 0,0
12.01.2019 02:00:00 -0,4 -4,5 -1,9 6 4 12 6 N 1021,5 27 0,0
12.01.2019 01:00:00 -0,3 -4,4 -1,6 8 4 12 6 N 1021,7 25 0,0
12.01.2019 00:00:00 0,4 -4,3 -1,4 5 3 14 8 NNE 1021,8 26 0,0
11.01.2019 23:00:00 0,8 -4,1 -0,8 7 4 18 10 N 1021,9 26 0,0
11.01.2019 22:00:00 0,8 -3,7 -0,7 7 4 17 9 N 1021,7 22 0,0
11.01.2019 21:00:00 1,6 -3,3 -0,2 9 5 16 9 NNE 1021,6 22 0,0
11.01.2019 20:00:00 2,1 -2,8 -0,1 6 3 13 7 N 1021,2 25 0,0
11.01.2019 19:00:00 3,1 -1,5 1,4 9 5 14 8 NNE 1021,0 23 0,0
11.01.2019 18:00:00 5,1 -0,7 2,3 6 4 10 6 N 1020,4 14 0,0
11.01.2019 17:00:00 8,4 -1,2 3,7 4 2 9 5 WNW 1019,8 60 0,0
11.01.2019 16:00:00 11,6 -0,3 11,3 6 3 10 5 SSW 1019,4 60 0,0
11.01.2019 15:00:00 12,2 -1,0 13,5 6 3 11 6 SSW 1019,0 59 0,0
11.01.2019 14:00:00 12,0 -2,6 10,7 7 4 12 7 S 1018,9 60 0,0
11.01.2019 13:00:00 12,2 -3,6 13,4 6 3 10 6 S 1019,3 20 0,0
11.01.2019 12:00:00 10,5 -4,0 8,2 3 2 13 7 NNE 1019,6 19 0,0
11.01.2019 11:00:00 6,8 -4,3 2,7 8 4 17 9 N 1019,9 19 0,0
11.01.2019 10:00:00 2,8 -5,1 -1,0 10 6 19 10 N 1019,5 19 0,0
11.01.2019 09:00:00 0,1 -5,5 -2,3 8 4 15 8 NNE 1018,8 20 0,0
11.01.2019 08:00:00 -0,6 -5,8 -2,4 5 3 17 9 NNE 1018,2 34 0,0
11.01.2019 07:00:00 -0,4 -5,8 -2,0 9 5 16 8 NNE 1017,8 43 0,0
11.01.2019 06:00:00 -0,1 -6,1 -1,9 8 5 18 10 N 1017,5 49 0,0
11.01.2019 05:00:00 -0,3 -5,9 -1,9 7 4 16 9 N 1017,5 42 0,0
11.01.2019 04:00:00 -0,4 -5,8 -1,8 7 4 16 9 N 1017,7 40 0,0
11.01.2019 03:00:00 -0,3 -5,9 -1,9 9 5 14 8 N 1017,7 38 0,0
11.01.2019 02:00:00 -0,3 -5,9 -1,8 10 5 16 8 N 1017,3 34 0,0
11.01.2019 01:00:00 -0,2 -5,6 -1,8 9 5 16 9 N 1017,1 50 0,0
11.01.2019 00:00:00 -0,3 -5,1 -1,6 9 5 17 9 N 1016,9 27 0,0
10.01.2019 23:00:00 -0,1 -4,7 -1,6 9 5 16 8 N 1016,8 30 0,0
10.01.2019 22:00:00 0,3 -4,5 -1,2 10 6 15 8 N 1016,3 23 0,0
10.01.2019 21:00:00 1,1 -4,2 -0,6 10 5 15 8 NNE 1015,8 22 0,0
10.01.2019 20:00:00 2,0 -3,5 -0,1 6 3 14 7 NNE 1014,9 21 0,0
10.01.2019 19:00:00 2,6 -3,1 0,6 7 4 13 7 N 1014,1 20 0,0
10.01.2019 18:00:00 5,4 -3,4 1,1 9 5 16 9 N 1013,6 26 0,0
10.01.2019 17:00:00 9,4 -6,9 3,6 2 1 22 12 SSW 1013,1 60 0,0

tt = Température de l'air
td = dewpoint
tt 5cm = Température de l'air 5cm
ff = Vitesse du vent
fx = gusts
dd = Direction du vent
ppp = reduced air pressure
vv = visibility
rr = Quantités de précipitations

stations d'obs. à proximité